EW1276 Weather Reports


Display with metric or nautical units.
time (UTC)temp
F
wind
direction
speed
MPH
gust
MPH
rain 1hr
in
rain 24hr
in
rain mn
in
humidity
%
barometer
mb
20260510104605 55 0 0.0 2.0 0.00 0.00 0.00 91 1015.3
20260510103045 54 0 0.0 0.0 0.00 0.00 0.00 92 1015.4
20260510101542 55 0 0.0 1.0 0.00 0.00 0.00 92 1015.3
20260510100041 55 0 0.0 1.0 0.00 0.00 0.00 92 1015.0
20260510094542 55 0 0.0 1.0 0.00 0.00 0.00 91 1014.9
20260510093040 55 0 0.0 1.0 0.00 0.00 0.00 91 1014.8
20260510091539 55 0 0.0 1.0 0.00 0.00 0.00 91 1014.4
20260510090036 55 0 0.0 1.0 0.00 0.00 0.00 90 1014.5
20260510084543 56 0 0.0 0.0 0.00 0.00 0.00 90 1014.3
20260510083041 56 0 0.0 1.0 0.00 0.00 0.00 90 1014.0
20260510081543 56 0 0.0 2.0 0.00 0.00 0.00 89 1013.9
20260510080039 55 0 1.0 3.0 0.00 0.00 0.00 90 1014.4
20260510074540 55 0 0.0 0.0 0.00 0.00 0.00 90 1014.4
20260510073044 55 0 0.0 1.0 0.00 0.00 0.00 88 1014.2
20260510071542 56 227 0.0 1.0 0.00 0.00 0.00 87 1014.0
20260510070044 57 0 0.0 1.0 0.00 0.00 0.00 86 1013.9
20260510064540 58 0 0.0 1.0 0.00 0.00 0.00 84 1013.8
20260510063041 58 0 0.0 1.0 0.00 0.00 0.00 84 1014.0
20260510061541 58 0 1.0 4.0 0.00 0.00 0.00 85 1014.2
20260510060133 56 0 0.0 1.0 0.00 0.00 0.00 88 1014.0
20260510054541 57 0 0.0 0.0 0.00 0.00 0.00 87 1013.8
20260510053042 57 0 0.0 0.0 0.00 0.00 0.00 87 1013.8
20260510051559 58 0 0.0 2.0 0.00 0.00 0.00 87 1013.9
20260510050042 58 333 0.0 1.0 0.00 0.00 0.00 87 1013.5
20260510044544 58 0 0.0 0.0 0.00 0.00 0.00 86 1013.4
20260510043102 58 0 0.0 0.0 0.00 0.00 0.00 85 1013.5
20260510041550 58 0 0.0 3.0 0.00 0.00 0.00 85 1013.4
20260510040043 59 0 0.0 1.0 0.00 0.00 0.00 83 1013.2
20260510034544 59 0 0.0 1.0 0.00 0.00 0.00 83 1013.1
20260510033050 60 0 0.0 4.0 0.00 0.00 0.00 81 1013.1
20260510031608 60 0 0.0 0.0 0.00 0.00 0.00 78 1012.8
20260510030044 61 0 0.0 0.0 0.00 0.00 0.00 75 1012.5
20260510024545 63 0 0.0 0.0 0.00 0.00 0.00 74 1012.3
20260510023048 64 0 0.0 0.0 0.00 0.00 0.00 70 1011.9
20260510021544 65 0 0.0 0.0 0.00 0.00 0.00 68 1011.7
20260510020042 67 0 0.0 0.0 0.00 0.00 0.00 66 1011.4
20260510014544 68 0 0.0 0.0 0.00 0.00 0.00 66 1011.1
20260510013043 70 0 0.0 0.0 0.00 0.00 0.00 62 1010.9
20260510011554 72 0 0.0 0.0 0.00 0.00 0.00 58 1010.8
20260510010050 74 0 0.0 0.0 0.00 0.00 0.00 52 1010.7
20260510004540 77 0 0.0 1.0 0.00 0.00 0.00 46 1010.3
20260510003041 78 0 0.0 2.0 0.00 0.00 0.00 42 1010.3
20260510001544 79 0 0.0 3.0 0.00 0.00 0.00 40 1010.4
20260510000049 79 0 0.0 5.0 0.00 0.00 0.00 37 1010.3
20260509234542 80 5 1.0 4.0 0.00 0.01 0.00 35 1010.2
20260509233041 80 9 2.0 4.0 0.00 0.01 0.00 36 1010.2
20260509231546 81 51 2.0 5.0 0.00 0.01 0.00 35 1010.3
20260509230039 80 327 1.0 9.0 0.00 0.01 0.00 37 1010.2
20260509224544 81 331 3.0 12.0 0.00 0.01 0.00 36 1010.2
20260509223044 82 318 2.0 4.0 0.00 0.01 0.00 34 1010.2
20260509221543 83 163 0.0 4.0 0.00 0.01 0.00 32 1010.3
20260509220046 83 0 1.0 4.0 0.00 0.01 0.00 34 1010.4
20260509214541 82 0 0.0 5.0 0.00 0.01 0.00 32 1010.3
20260509213057 82 24 3.0 6.0 0.00 0.01 0.00 32 1010.4
20260509211606 83 88 1.0 6.0 0.00 0.01 0.00 32 1010.4
20260509210038 83 114 2.0 5.0 0.00 0.01 0.00 32 1010.6
20260509204557 82 173 2.0 9.0 0.00 0.01 0.00 33 1010.6
20260509203049 83 85 1.0 6.0 0.00 0.01 0.00 33 1010.7
20260509201540 82 0 1.0 10.0 0.00 0.01 0.00 34 1011.0
20260509200041 81 333 2.0 9.0 0.00 0.01 0.00 31 1011.2
20260509194543 82 133 1.0 5.0 0.00 0.01 0.00 37 1011.4
20260509193045 82 81 1.0 9.0 0.00 0.01 0.00 34 1011.4
20260509191542 81 20 2.0 7.0 0.00 0.01 0.00 33 1011.4
20260509190047 81 113 3.0 8.0 0.00 0.01 0.00 37 1011.4
20260509184540 80 303 5.0 11.0 0.00 0.01 0.00 35 1011.4
20260509183041 81 350 4.0 9.0 0.00 0.01 0.00 39 1011.4
20260509181540 80 290 3.0 8.0 0.00 0.01 0.00 38 1011.4
20260509180040 80 107 2.0 7.0 0.00 0.01 0.00 37 1011.4
20260509174541 80 279 2.0 9.0 0.00 0.01 0.00 36 1011.5
20260509173041 80 12 1.0 6.0 0.00 0.01 0.00 43 1011.5
20260509171541 79 0 2.0 7.0 0.00 0.01 0.00 40 1011.7
20260509170041 79 71 2.0 7.0 0.00 0.01 0.00 41 1011.9
20260509164547 79 74 1.0 6.0 0.00 0.01 0.00 43 1011.7
20260509163056 78 159 2.0 9.0 0.00 0.01 0.00 47 1011.8
20260509161542 78 70 1.0 9.0 0.00 0.01 0.00 49 1011.7
20260509160041 77 168 1.0 6.0 0.00 0.01 0.00 51 1011.7
20260509154542 76 103 1.0 6.0 0.00 0.01 0.00 54 1011.6
20260509153038 75 0 0.0 4.0 0.00 0.01 0.00 57 1011.6
20260509151546 73 0 2.0 5.0 0.00 0.01 0.00 61 1011.6
20260509150049 71 0 1.0 4.0 0.00 0.01 0.00 70 1011.7
20260509144544 69 290 2.0 4.0 0.00 0.01 0.00 77 1011.6
20260509143045 68 273 1.0 3.0 0.00 0.01 0.00 80 1011.6
20260509141544 66 67 0.0 2.0 0.00 0.01 0.00 82 1011.5
20260509140046 63 0 0.0 2.0 0.00 0.01 0.00 89 1011.5
20260509134549 60 232 0.0 3.0 0.00 0.01 0.00 95 1011.5
20260509133053 58 232 1.0 3.0 0.00 0.01 0.00 99 1011.6
20260509131544 56 342 1.0 2.0 0.00 0.01 0.00 99 1011.5
20260509130044 53 0 0.0 0.0 0.00 0.01 0.00 99 1011.4
20260509124543 51 0 0.0 1.0 0.00 0.01 0.00 98 1011.5
20260509123041 49 0 0.0 0.0 0.00 0.01 0.00 98 1011.4
20260509121547 48 0 0.0 1.0 0.00 0.01 0.00 98 1011.3
20260509120044 47 0 0.0 0.0 0.00 0.01 0.00 97 1011.0
20260509114550 46 0 0.0 0.0 0.00 0.01 0.00 97 1010.9
20260509113044 47 0 0.0 0.0 0.00 0.01 0.00 96 1010.8
20260509111539 47 0 0.0 0.0 0.00 0.01 0.00 96 1010.7
20260509110041 47 0 0.0 0.0 0.00 0.01 0.00 96 1010.7